User: anonymous   Login
Location: Stoke Bliss
(52.2667°N, 2.5167°W)
Time: 22:06:29
(UTC+00:00)
Language:

IGS 5A - Orbit

View from above orbital plane
View from above orbital plane
View from above satellite
View from above satellite

Ground track
Ground track

The orbit data is extracted from the following two-line orbital elements,

1 36104U 09066A   21122.86921870 0.00000500  00000-0  47046-4 0    07
2 36104  97.5555 179.2687 0002286 345.6196  14.3802 14.93944895    08
Epoch (UTC): 02 May 2021 20:51:40
Eccentricity: 0.0002286
inclination: 97.5555°
perigee height: 584 km
apogee height: 587 km
right ascension of ascending node: 179.2687°
argument of perigee: 345.6196°
revolutions per day: 14.93944895
mean anomaly at epoch: 14.3802°
orbit number at epoch: 0

The dashed part of the orbit path shows where the satellite is in the earth's shadow,  

DLR